Time,TemperatureF,DewpointF,PressureIn,WindDirection,WindDirectionDegrees,WindSpeedMPH,WindSpeedGustMPH,Humidity,HourlyPrecipIn,Conditions,Clouds,dailyrainin,SoftwareType,DateUTC
2013-02-19 00:00:00,66.6,53.1,29.64,SSE,157,0.0,0.0,62,0.00,,,0.00,WUHU21623XXSP,2013-02-19 05:00:00,
2013-02-19 00:01:00,66.6,53.1,29.64,SSE,157,0.0,0.0,62,0.00,,,0.00,WUHU21623XXSP,2013-02-19 05:01:00,
2013-02-19 00:06:00,66.4,53.0,29.64,SSE,157,0.0,0.0,62,0.00,,,0.00,WUHU21623XXSP,2013-02-19 05:06:00,
2013-02-19 00:11:00,66.0,52.6,29.64,SE,135,0.0,0.0,62,0.00,,,0.00,WUHU21623XXSP,2013-02-19 05:11:00,
2013-02-19 00:16:00,66.0,53.0,29.64,SE,135,0.0,0.0,63,0.00,,,0.00,WUHU21623XXSP,2013-02-19 05:16:00,
2013-02-19 00:21:00,66.0,52.6,29.64,SSE,157,0.0,0.0,62,0.00,,,0.00,WUHU21623XXSP,2013-02-19 05:21:00,
2013-02-19 00:26:00,66.0,52.6,29.64,SSE,157,0.0,0.0,62,0.00,,,0.00,WUHU21623XXSP,2013-02-19 05:26:00,
2013-02-19 00:31:00,66.0,52.6,29.64,SSE,157,0.0,0.0,62,0.00,,,0.00,WUHU21623XXSP,2013-02-19 05:31:00,
2013-02-19 00:36:00,65.8,52.9,29.64,ESE,112,0.0,0.0,63,0.00,,,0.00,WUHU21623XXSP,2013-02-19 05:36:00,
2013-02-19 00:41:00,65.8,52.9,29.64,SE,135,0.0,0.0,63,0.00,,,0.00,WUHU21623XXSP,2013-02-19 05:41:00,
2013-02-19 00:46:00,65.8,52.9,29.63,ESE,112,0.0,0.0,63,0.00,,,0.00,WUHU21623XXSP,2013-02-19 05:46:00,
2013-02-19 00:51:00,65.8,52.9,29.63,East,90,0.0,0.0,63,0.00,,,0.00,WUHU21623XXSP,2013-02-19 05:51:00,
2013-02-19 00:56:00,65.8,52.9,29.63,SE,135,0.0,0.0,63,0.00,,,0.00,WUHU21623XXSP,2013-02-19 05:56:00,
2013-02-19 01:01:00,65.8,52.9,29.63,SSE,157,0.0,0.0,63,0.00,,,0.00,WUHU21623XXSP,2013-02-19 06:01:00,
2013-02-19 01:06:00,65.7,53.1,29.63,South,180,0.0,0.0,64,0.00,,,0.00,WUHU21623XXSP,2013-02-19 06:06:00,
2013-02-19 01:11:00,65.5,52.5,29.63,SSE,157,0.0,0.0,63,0.00,,,0.00,WUHU21623XXSP,2013-02-19 06:11:00,
2013-02-19 01:16:00,65.5,52.5,29.63,SSE,157,0.0,0.0,63,0.00,,,0.00,WUHU21623XXSP,2013-02-19 06:16:00,
2013-02-19 01:21:00,65.5,52.5,29.63,ESE,112,0.0,0.0,63,0.00,,,0.00,WUHU21623XXSP,2013-02-19 06:21:00,
2013-02-19 01:26:00,65.7,53.1,29.63,SSE,157,0.0,0.0,64,0.00,,,0.00,WUHU21623XXSP,2013-02-19 06:26:00,
2013-02-19 01:31:00,65.5,52.9,29.63,South,180,0.0,0.0,64,0.00,,,0.00,WUHU21623XXSP,2013-02-19 06:31:00,
2013-02-19 01:36:00,65.5,53.4,29.63,SSE,157,0.0,0.0,65,0.00,,,0.00,WUHU21623XXSP,2013-02-19 06:36:00,
2013-02-19 01:41:00,65.5,53.4,29.63,SSE,157,0.0,0.0,65,0.00,,,0.00,WUHU21623XXSP,2013-02-19 06:41:00,
2013-02-19 01:46:00,65.3,53.6,29.63,South,180,0.0,0.0,66,0.00,,,0.00,WUHU21623XXSP,2013-02-19 06:46:00,
2013-02-19 01:51:00,65.3,53.6,29.62,SSE,157,0.0,0.0,66,0.00,,,0.00,WUHU21623XXSP,2013-02-19 06:51:00,
2013-02-19 01:56:00,65.5,53.8,29.62,SSE,157,0.0,0.0,66,0.00,,,0.00,WUHU21623XXSP,2013-02-19 06:56:00,
2013-02-19 02:01:00,65.5,53.8,29.62,SE,135,0.0,0.0,66,0.00,,,0.00,WUHU21623XXSP,2013-02-19 07:01:00,
2013-02-19 02:06:00,65.3,53.6,29.62,South,180,0.0,0.0,66,0.00,,,0.00,WUHU21623XXSP,2013-02-19 07:06:00,
2013-02-19 02:11:00,65.5,53.8,29.62,South,180,0.0,0.0,66,0.00,,,0.00,WUHU21623XXSP,2013-02-19 07:11:00,
2013-02-19 02:16:00,65.5,53.8,29.62,SSE,157,0.0,0.0,66,0.00,,,0.00,WUHU21623XXSP,2013-02-19 07:16:00,
2013-02-19 02:21:00,65.1,53.4,29.61,SE,135,0.0,0.0,66,0.00,,,0.00,WUHU21623XXSP,2013-02-19 07:21:00,
2013-02-19 02:26:00,65.1,53.0,29.61,SE,135,0.0,0.0,65,0.00,,,0.00,WUHU21623XXSP,2013-02-19 07:26:00,
2013-02-19 02:31:00,65.3,53.2,29.61,SE,135,0.0,0.0,65,0.00,,,0.00,WUHU21623XXSP,2013-02-19 07:31:00,
2013-02-19 02:36:00,65.1,53.4,29.61,SSE,157,0.0,0.0,66,0.00,,,0.00,WUHU21623XXSP,2013-02-19 07:36:00,
2013-02-19 02:41:00,65.1,53.4,29.61,SSE,157,0.0,0.0,66,0.00,,,0.00,WUHU21623XXSP,2013-02-19 07:41:00,
2013-02-19 02:46:00,65.3,53.6,29.61,SE,135,0.0,0.0,66,0.00,,,0.00,WUHU21623XXSP,2013-02-19 07:46:00,
2013-02-19 02:51:00,65.3,52.8,29.61,SSE,157,0.0,0.0,64,0.00,,,0.00,WUHU21623XXSP,2013-02-19 07:51:00,
2013-02-19 02:56:00,65.5,52.5,29.61,SE,135,0.0,0.0,63,0.00,,,0.00,WUHU21623XXSP,2013-02-19 07:56:00,
2013-02-19 03:01:00,65.5,52.5,29.61,SE,135,0.0,0.0,63,0.00,,,0.00,WUHU21623XXSP,2013-02-19 08:01:00,
2013-02-19 03:06:00,65.5,52.5,29.61,SSE,157,0.0,0.0,63,0.00,,,0.00,WUHU21623XXSP,2013-02-19 08:06:00,
2013-02-19 03:11:00,65.3,52.3,29.61,SSE,157,0.0,0.0,63,0.00,,,0.00,WUHU21623XXSP,2013-02-19 08:11:00,
2013-02-19 03:16:00,65.1,51.7,29.60,SSE,157,0.0,0.0,62,0.00,,,0.00,WUHU21623XXSP,2013-02-19 08:16:00,
2013-02-19 03:21:00,65.3,51.5,29.60,SSE,157,0.0,0.0,61,0.00,,,0.00,WUHU21623XXSP,2013-02-19 08:21:00,
2013-02-19 03:26:00,65.3,51.9,29.60,South,180,0.0,0.0,62,0.00,,,0.00,WUHU21623XXSP,2013-02-19 08:26:00,
2013-02-19 03:31:00,65.3,52.3,29.60,SE,135,0.0,0.0,63,0.00,,,0.00,WUHU21623XXSP,2013-02-19 08:31:00,
2013-02-19 03:36:00,65.1,52.2,29.60,SSE,157,0.0,0.0,63,0.00,,,0.00,WUHU21623XXSP,2013-02-19 08:36:00,
2013-02-19 03:41:00,65.1,52.6,29.60,SSE,157,0.0,0.0,64,0.00,,,0.00,WUHU21623XXSP,2013-02-19 08:41:00,
2013-02-19 03:46:00,65.3,52.8,29.60,SSE,157,0.0,0.0,64,0.00,,,0.00,WUHU21623XXSP,2013-02-19 08:46:00,
2013-02-19 03:51:00,65.1,52.2,29.60,SE,135,0.0,0.0,63,0.00,,,0.00,WUHU21623XXSP,2013-02-19 08:51:00,
2013-02-19 03:56:00,65.3,51.9,29.60,SSE,157,0.0,0.0,62,0.00,,,0.00,WUHU21623XXSP,2013-02-19 08:56:00,
2013-02-19 04:01:00,65.5,52.5,29.60,SSE,157,0.0,0.0,63,0.00,,,0.00,WUHU21623XXSP,2013-02-19 09:01:00,
2013-02-19 04:06:00,65.5,52.5,29.60,SSE,157,0.0,0.0,63,0.00,,,0.00,WUHU21623XXSP,2013-02-19 09:06:00,
2013-02-19 04:11:00,65.5,52.5,29.60,SE,135,0.0,0.0,63,0.00,,,0.00,WUHU21623XXSP,2013-02-19 09:11:00,
2013-02-19 04:16:00,65.5,52.9,29.60,SE,135,0.0,0.0,64,0.00,,,0.00,WUHU21623XXSP,2013-02-19 09:16:00,
2013-02-19 04:21:00,65.5,52.9,29.59,East,90,0.0,0.0,64,0.00,,,0.00,WUHU21623XXSP,2013-02-19 09:21:00,
2013-02-19 04:26:00,65.7,52.7,29.59,SE,135,0.0,0.0,63,0.00,,,0.00,WUHU21623XXSP,2013-02-19 09:26:00,
2013-02-19 04:31:00,65.7,52.7,29.59,SSE,157,0.0,0.0,63,0.00,,,0.00,WUHU21623XXSP,2013-02-19 09:31:00,
2013-02-19 04:36:00,65.5,52.1,29.59,SSE,157,0.0,0.0,62,0.00,,,0.00,WUHU21623XXSP,2013-02-19 09:36:00,
2013-02-19 04:41:00,65.5,52.5,29.59,SSE,157,0.0,0.0,63,0.00,,,0.00,WUHU21623XXSP,2013-02-19 09:41:00,
2013-02-19 04:46:00,65.3,52.3,29.59,SE,135,0.0,0.0,63,0.00,,,0.00,WUHU21623XXSP,2013-02-19 09:46:00,
2013-02-19 04:51:00,65.1,52.2,29.59,SSE,157,0.0,0.0,63,0.00,,,0.00,WUHU21623XXSP,2013-02-19 09:51:00,
2013-02-19 04:56:00,65.1,52.2,29.60,SSE,157,0.0,0.0,63,0.00,,,0.00,WUHU21623XXSP,2013-02-19 09:56:00,
2013-02-19 05:01:00,64.9,52.0,29.60,SE,135,0.0,0.0,63,0.00,,,0.00,WUHU21623XXSP,2013-02-19 10:01:00,
2013-02-19 05:06:00,64.9,52.0,29.60,SSE,157,0.0,0.0,63,0.00,,,0.00,WUHU21623XXSP,2013-02-19 10:06:00,
2013-02-19 05:11:00,64.9,52.0,29.60,South,180,0.0,0.0,63,0.00,,,0.00,WUHU21623XXSP,2013-02-19 10:11:00,
2013-02-19 05:16:00,64.8,52.3,29.60,SSE,157,0.0,0.0,64,0.00,,,0.00,WUHU21623XXSP,2013-02-19 10:16:00,
2013-02-19 05:21:00,64.6,52.1,29.59,SSE,157,0.0,0.0,64,0.00,,,0.00,WUHU21623XXSP,2013-02-19 10:21:00,
2013-02-19 05:26:00,64.6,52.5,29.60,SSE,157,0.0,0.0,65,0.00,,,0.00,WUHU21623XXSP,2013-02-19 10:26:00,
2013-02-19 05:31:00,64.2,52.2,29.60,SE,135,0.0,0.0,65,0.00,,,0.00,WUHU21623XXSP,2013-02-19 10:31:00,
2013-02-19 05:36:00,64.2,52.2,29.60,SW,225,0.0,0.0,65,0.00,,,0.00,WUHU21623XXSP,2013-02-19 10:36:00,
2013-02-19 05:41:00,64.2,52.6,29.60,SE,135,0.0,0.0,66,0.00,,,0.00,WUHU21623XXSP,2013-02-19 10:41:00,
2013-02-19 05:46:00,64.2,52.6,29.61,SSE,157,0.0,0.0,66,0.00,,,0.00,WUHU21623XXSP,2013-02-19 10:46:00,
2013-02-19 05:51:00,64.0,52.4,29.61,SE,135,0.0,0.0,66,0.00,,,0.00,WUHU21623XXSP,2013-02-19 10:51:00,
2013-02-19 05:56:00,63.7,52.5,29.61,SE,135,0.0,0.0,67,0.00,,,0.00,WUHU21623XXSP,2013-02-19 10:56:00,
2013-02-19 06:01:00,63.5,52.3,29.61,SE,135,0.0,0.0,67,0.00,,,0.00,WUHU21623XXSP,2013-02-19 11:01:00,
2013-02-19 06:06:00,63.3,52.6,29.61,SE,135,0.0,0.0,68,0.00,,,0.00,WUHU21623XXSP,2013-02-19 11:06:00,
2013-02-19 06:11:00,63.1,52.4,29.61,SE,135,0.0,0.0,68,0.00,,,0.00,WUHU21623XXSP,2013-02-19 11:11:00,
2013-02-19 06:16:00,62.8,52.4,29.61,SE,135,0.0,0.0,69,0.00,,,0.00,WUHU21623XXSP,2013-02-19 11:16:00,
2013-02-19 06:21:00,62.6,52.3,29.61,SSE,157,0.0,0.0,69,0.00,,,0.00,WUHU21623XXSP,2013-02-19 11:21:00,
2013-02-19 06:26:00,62.4,52.1,29.61,SSE,157,0.0,0.0,69,0.00,,,0.00,WUHU21623XXSP,2013-02-19 11:26:00,
2013-02-19 06:31:00,62.2,52.4,29.61,SSE,157,0.0,0.0,70,0.00,,,0.00,WUHU21623XXSP,2013-02-19 11:31:00,
2013-02-19 06:36:00,62.2,52.4,29.62,SSE,157,0.0,0.0,70,0.00,,,0.00,WUHU21623XXSP,2013-02-19 11:36:00,
2013-02-19 06:41:00,62.2,52.7,29.62,SSE,157,0.0,0.0,71,0.00,,,0.00,WUHU21623XXSP,2013-02-19 11:41:00,
2013-02-19 06:46:00,62.4,53.3,29.62,SSE,157,0.0,0.0,72,0.00,,,0.00,WUHU21623XXSP,2013-02-19 11:46:00,
2013-02-19 06:51:00,62.4,53.3,29.62,SSE,157,0.0,0.0,72,0.00,,,0.00,WUHU21623XXSP,2013-02-19 11:51:00,
2013-02-19 06:56:00,62.4,53.3,29.62,SSE,157,0.0,0.0,72,0.00,,,0.00,WUHU21623XXSP,2013-02-19 11:56:00,
2013-02-19 07:01:00,62.4,53.3,29.62,SSE,157,0.0,0.0,72,0.00,,,0.00,WUHU21623XXSP,2013-02-19 12:01:00,
2013-02-19 07:06:00,62.4,53.3,29.62,SSE,157,0.0,0.0,72,0.00,,,0.00,WUHU21623XXSP,2013-02-19 12:06:00,
2013-02-19 07:11:00,63.0,54.1,29.62,SE,135,0.0,0.0,73,0.00,,,0.00,WUHU21623XXSP,2013-02-19 12:11:00,
2013-02-19 07:16:00,63.3,54.5,29.62,ESE,112,0.0,0.0,73,0.00,,,0.00,WUHU21623XXSP,2013-02-19 12:16:00,
2013-02-19 07:21:00,64.0,55.2,29.62,ESE,112,0.0,0.0,73,0.00,,,0.00,WUHU21623XXSP,2013-02-19 12:21:00,
2013-02-19 07:26:00,64.2,55.4,29.62,SE,135,0.0,0.0,73,0.00,,,0.00,WUHU21623XXSP,2013-02-19 12:26:00,
2013-02-19 07:31:00,64.6,55.4,29.63,SE,135,0.0,0.0,72,0.00,,,0.00,WUHU21623XXSP,2013-02-19 12:31:00,
2013-02-19 07:36:00,64.8,55.5,29.62,SE,135,0.0,0.0,72,0.00,,,0.00,WUHU21623XXSP,2013-02-19 12:36:00,
2013-02-19 07:41:00,65.1,55.9,29.62,SSE,157,0.0,0.0,72,0.00,,,0.00,WUHU21623XXSP,2013-02-19 12:41:00,
2013-02-19 07:46:00,65.7,56.0,29.62,SSE,157,0.0,0.0,71,0.00,,,0.00,WUHU21623XXSP,2013-02-19 12:46:00,
2013-02-19 07:51:00,66.0,56.3,29.63,SSE,157,0.0,0.0,71,0.00,,,0.00,WUHU21623XXSP,2013-02-19 12:51:00,
2013-02-19 07:56:00,66.4,56.7,29.62,SSE,157,0.0,0.0,71,0.00,,,0.00,WUHU21623XXSP,2013-02-19 12:56:00,
2013-02-19 08:01:00,66.9,56.8,29.63,SE,135,0.0,0.0,70,0.00,,,0.00,WUHU21623XXSP,2013-02-19 13:01:00,
2013-02-19 08:06:00,67.3,56.8,29.63,SE,135,0.0,0.0,69,0.00,,,0.00,WUHU21623XXSP,2013-02-19 13:06:00,
2013-02-19 08:11:00,67.8,57.3,29.63,SSE,157,0.0,0.0,69,0.00,,,0.00,WUHU21623XXSP,2013-02-19 13:11:00,
2013-02-19 08:16:00,68.5,57.5,29.63,SSE,157,0.0,0.0,68,0.00,,,0.00,WUHU21623XXSP,2013-02-19 13:16:00,
2013-02-19 08:21:00,68.7,57.3,29.63,SSE,157,0.0,0.0,67,0.00,,,0.00,WUHU21623XXSP,2013-02-19 13:21:00,
2013-02-19 08:26:00,69.1,57.6,29.63,SE,135,0.0,0.0,67,0.00,,,0.00,WUHU21623XXSP,2013-02-19 13:26:00,
2013-02-19 08:31:00,69.1,57.6,29.63,SSE,157,0.0,0.0,67,0.00,,,0.00,WUHU21623XXSP,2013-02-19 13:31:00,
2013-02-19 08:36:00,69.4,58.0,29.63,SE,135,0.0,0.0,67,0.00,,,0.00,WUHU21623XXSP,2013-02-19 13:36:00,
2013-02-19 08:41:00,69.8,57.9,29.63,SSE,157,0.0,0.0,66,0.00,,,0.00,WUHU21623XXSP,2013-02-19 13:41:00,
2013-02-19 08:46:00,70.3,58.0,29.63,SE,135,0.0,0.0,65,0.00,,,0.00,WUHU21623XXSP,2013-02-19 13:46:00,
2013-02-19 08:51:00,70.3,58.0,29.63,SE,135,0.0,0.0,65,0.00,,,0.00,WUHU21623XXSP,2013-02-19 13:51:00,
2013-02-19 08:56:00,70.9,58.5,29.63,SE,135,0.0,0.0,65,0.00,,,0.00,WUHU21623XXSP,2013-02-19 13:56:00,
2013-02-19 09:01:00,71.6,58.3,29.63,South,180,0.0,0.0,63,0.00,,,0.00,WUHU21623XXSP,2013-02-19 14:01:00,
2013-02-19 09:06:00,72.0,58.6,29.63,SE,135,0.0,0.0,63,0.00,,,0.00,WUHU21623XXSP,2013-02-19 14:06:00,
2013-02-19 09:11:00,72.3,59.0,29.63,SSE,157,0.0,0.0,63,0.00,,,0.00,WUHU21623XXSP,2013-02-19 14:11:00,
2013-02-19 09:16:00,72.1,58.8,29.63,SSE,157,0.0,0.0,63,0.00,,,0.00,WUHU21623XXSP,2013-02-19 14:16:00,
2013-02-19 09:21:00,72.5,59.1,29.63,SSE,157,0.0,0.0,63,0.00,,,0.00,WUHU21623XXSP,2013-02-19 14:21:00,
2013-02-19 09:26:00,73.0,59.2,29.63,SSE,157,0.0,0.0,62,0.00,,,0.00,WUHU21623XXSP,2013-02-19 14:26:00,
2013-02-19 09:32:00,72.9,59.0,29.63,SSE,157,0.0,0.0,62,0.00,,,0.00,WUHU21623XXSP,2013-02-19 14:32:00,
2013-02-19 09:37:00,73.2,58.9,29.63,SSE,157,0.0,0.0,61,0.00,,,0.00,WUHU21623XXSP,2013-02-19 14:37:00,
2013-02-19 09:42:00,74.3,59.5,29.63,SSE,157,0.0,0.0,60,0.00,,,0.00,WUHU21623XXSP,2013-02-19 14:42:00,
2013-02-19 09:47:00,73.9,59.2,29.63,South,180,0.0,0.0,60,0.00,,,0.00,WUHU21623XXSP,2013-02-19 14:47:00,
2013-02-19 09:52:00,74.3,59.5,29.63,SSE,157,0.0,0.0,60,0.00,,,0.00,WUHU21623XXSP,2013-02-19 14:52:00,
2013-02-19 09:57:00,74.8,60.1,29.63,SSE,157,0.0,0.0,60,0.00,,,0.00,WUHU21623XXSP,2013-02-19 14:57:00,
2013-02-19 10:02:00,74.7,59.9,29.63,SE,135,0.0,0.0,60,0.00,,,0.00,WUHU21623XXSP,2013-02-19 15:02:00,
2013-02-19 10:07:00,75.2,60.4,29.63,South,180,0.0,0.0,60,0.00,,,0.00,WUHU21623XXSP,2013-02-19 15:07:00,
2013-02-19 10:12:00,75.9,60.1,29.63,SSE,157,0.0,0.0,58,0.00,,,0.00,WUHU21623XXSP,2013-02-19 15:12:00,
2013-02-19 10:17:00,74.8,60.1,29.63,SSE,157,0.0,0.0,60,0.00,,,0.00,WUHU21623XXSP,2013-02-19 15:17:00,
2013-02-19 10:22:00,75.9,60.6,29.63,SSE,157,0.0,0.0,59,0.00,,,0.00,WUHU21623XXSP,2013-02-19 15:22:00,
2013-02-19 10:27:00,75.9,60.1,29.63,SSE,157,0.0,0.0,58,0.00,,,0.00,WUHU21623XXSP,2013-02-19 15:27:00,
2013-02-19 10:32:00,74.8,60.1,29.63,South,180,0.0,0.0,60,0.00,,,0.00,WUHU21623XXSP,2013-02-19 15:32:00,
2013-02-19 10:37:00,76.1,60.7,29.63,South,180,0.0,0.0,59,0.00,,,0.00,WUHU21623XXSP,2013-02-19 15:37:00,
2013-02-19 10:42:00,77.0,61.1,29.63,SSE,157,0.0,0.0,58,0.00,,,0.00,WUHU21623XXSP,2013-02-19 15:42:00,
2013-02-19 10:47:00,77.4,61.4,29.63,South,180,0.0,0.0,58,0.00,,,0.00,WUHU21623XXSP,2013-02-19 15:47:00,
2013-02-19 10:52:00,77.7,61.2,29.63,SSE,157,0.0,0.0,57,0.00,,,0.00,WUHU21623XXSP,2013-02-19 15:52:00,
2013-02-19 10:57:00,77.2,60.7,29.63,SE,135,0.0,0.0,57,0.00,,,0.00,WUHU21623XXSP,2013-02-19 15:57:00,
2013-02-19 11:02:00,77.0,61.1,29.63,SE,135,0.0,0.0,58,0.00,,,0.00,WUHU21623XXSP,2013-02-19 16:02:00,
2013-02-19 11:07:00,78.3,61.3,29.63,SE,135,0.0,0.0,56,0.00,,,0.00,WUHU21623XXSP,2013-02-19 16:07:00,
2013-02-19 11:12:00,77.7,61.2,29.63,SSE,157,0.0,0.0,57,0.00,,,0.00,WUHU21623XXSP,2013-02-19 16:12:00,
2013-02-19 11:17:00,77.9,61.4,29.63,SSE,157,0.0,0.0,57,0.00,,,0.00,WUHU21623XXSP,2013-02-19 16:17:00,
2013-02-19 11:22:00,77.7,61.2,29.63,South,180,0.0,0.0,57,0.00,,,0.00,WUHU21623XXSP,2013-02-19 16:22:00,
2013-02-19 11:27:00,77.0,61.6,29.63,SE,135,0.0,0.0,59,0.00,,,0.00,WUHU21623XXSP,2013-02-19 16:27:00,
2013-02-19 11:32:00,77.4,61.4,29.63,South,180,0.0,0.0,58,0.00,,,0.00,WUHU21623XXSP,2013-02-19 16:32:00,
2013-02-19 11:37:00,77.2,61.2,29.63,South,180,0.0,0.0,58,0.00,,,0.00,WUHU21623XXSP,2013-02-19 16:37:00,
2013-02-19 11:42:00,76.3,60.9,29.63,SSE,157,0.0,0.0,59,0.00,,,0.00,WUHU21623XXSP,2013-02-19 16:42:00,
2013-02-19 11:47:00,76.8,61.4,29.63,SE,135,0.0,0.0,59,0.00,,,0.00,WUHU21623XXSP,2013-02-19 16:47:00,
2013-02-19 11:52:00,76.6,61.7,29.63,SSE,157,0.0,0.0,60,0.00,,,0.00,WUHU21623XXSP,2013-02-19 16:52:00,
2013-02-19 11:57:00,76.3,61.4,29.62,SSE,157,0.0,0.0,60,0.00,,,0.00,WUHU21623XXSP,2013-02-19 16:57:00,
2013-02-19 12:02:00,76.1,61.3,29.62,South,180,0.0,0.0,60,0.00,,,0.00,WUHU21623XXSP,2013-02-19 17:02:00,
2013-02-19 12:07:00,76.3,61.4,29.62,South,180,0.0,0.0,60,0.00,,,0.00,WUHU21623XXSP,2013-02-19 17:07:00,
2013-02-19 12:12:00,76.8,61.9,29.62,SSE,157,0.0,0.0,60,0.00,,,0.00,WUHU21623XXSP,2013-02-19 17:12:00,
2013-02-19 12:17:00,77.5,62.6,29.62,SSE,157,0.0,0.0,60,0.00,,,0.00,WUHU21623XXSP,2013-02-19 17:17:00,
2013-02-19 12:22:00,77.7,62.8,29.62,SE,135,0.0,0.0,60,0.00,,,0.00,WUHU21623XXSP,2013-02-19 17:22:00,
2013-02-19 12:27:00,78.6,63.2,29.62,SE,135,0.0,0.0,59,0.00,,,0.00,WUHU21623XXSP,2013-02-19 17:27:00,
2013-02-19 12:32:00,79.2,62.6,29.62,SE,135,0.0,0.0,57,0.00,,,0.00,WUHU21623XXSP,2013-02-19 17:32:00,
2013-02-19 12:37:00,78.4,62.5,29.61,SSE,157,0.0,0.0,58,0.00,,,0.00,WUHU21623XXSP,2013-02-19 17:37:00,
2013-02-19 12:42:00,78.6,63.2,29.61,South,180,0.0,0.0,59,0.00,,,0.00,WUHU21623XXSP,2013-02-19 17:42:00,
2013-02-19 12:47:00,79.2,63.1,29.61,SE,135,0.0,0.0,58,0.00,,,0.00,WUHU21623XXSP,2013-02-19 17:47:00,
2013-02-19 12:52:00,77.7,62.3,29.61,South,180,0.0,0.0,59,0.00,,,0.00,WUHU21623XXSP,2013-02-19 17:52:00,
2013-02-19 12:57:00,79.9,63.8,29.61,SSE,157,0.0,0.0,58,0.00,,,0.00,WUHU21623XXSP,2013-02-19 17:57:00,
2013-02-19 13:04:00,81.1,63.9,29.59,SSE,157,0.0,0.0,56,0.00,,,0.00,WUHU21623XXSP,2013-02-19 18:04:00,
2013-02-19 13:09:00,81.1,63.4,29.59,SE,135,0.0,0.0,55,0.00,,,0.00,WUHU21623XXSP,2013-02-19 18:09:00,
2013-02-19 13:14:00,79.5,63.5,29.60,SSE,157,0.0,0.0,58,0.00,,,0.00,WUHU21623XXSP,2013-02-19 18:14:00,
2013-02-19 13:19:00,79.0,63.5,29.59,SSE,157,0.0,0.0,59,0.00,,,0.00,WUHU21623XXSP,2013-02-19 18:19:00,
2013-02-19 13:24:00,80.8,64.1,29.60,SSE,157,0.0,0.0,57,0.00,,,0.00,WUHU21623XXSP,2013-02-19 18:24:00,
2013-02-19 13:29:00,82.0,64.7,29.59,South,180,0.0,0.0,56,0.00,,,0.00,WUHU21623XXSP,2013-02-19 18:29:00,
2013-02-19 13:34:00,82.6,64.7,29.58,SSE,157,0.0,0.0,55,0.00,,,0.00,WUHU21623XXSP,2013-02-19 18:34:00,
2013-02-19 13:39:00,82.9,64.5,29.58,SSE,157,0.0,0.0,54,0.00,,,0.00,WUHU21623XXSP,2013-02-19 18:39:00,
2013-02-19 13:44:00,82.2,63.8,29.58,SSE,157,0.0,0.0,54,0.00,,,0.00,WUHU21623XXSP,2013-02-19 18:44:00,
2013-02-19 13:49:00,82.2,63.8,29.58,SSE,157,0.0,0.0,54,0.00,,,0.00,WUHU21623XXSP,2013-02-19 18:49:00,
2013-02-19 13:54:00,80.8,63.6,29.58,SSE,157,0.0,0.0,56,0.00,,,0.00,WUHU21623XXSP,2013-02-19 18:54:00,
2013-02-19 13:59:00,82.2,64.3,29.58,SSE,157,0.0,0.0,55,0.00,,,0.00,WUHU21623XXSP,2013-02-19 18:59:00,
2013-02-19 14:04:00,83.1,65.2,29.57,SE,135,0.0,0.0,55,0.00,,,0.00,WUHU21623XXSP,2013-02-19 19:04:00,
2013-02-19 14:09:00,81.3,63.5,29.57,South,180,0.0,0.0,55,0.00,,,0.00,WUHU21623XXSP,2013-02-19 19:09:00,
2013-02-19 14:14:00,80.2,63.6,29.57,South,180,0.0,0.0,57,0.00,,,0.00,WUHU21623XXSP,2013-02-19 19:14:00,
2013-02-19 14:19:00,81.1,63.9,29.57,SSE,157,0.0,0.0,56,0.00,,,0.00,WUHU21623XXSP,2013-02-19 19:19:00,
2013-02-19 14:24:00,81.7,64.4,29.57,SSE,157,0.0,0.0,56,0.00,,,0.00,WUHU21623XXSP,2013-02-19 19:24:00,
2013-02-19 14:29:00,83.1,64.7,29.56,SSW,202,0.0,0.0,54,0.00,,,0.00,WUHU21623XXSP,2013-02-19 19:29:00,
2013-02-19 14:34:00,83.1,64.7,29.56,South,180,0.0,0.0,54,0.00,,,0.00,WUHU21623XXSP,2013-02-19 19:34:00,
2013-02-19 14:39:00,83.1,64.7,29.56,SSE,157,0.0,0.0,54,0.00,,,0.00,WUHU21623XXSP,2013-02-19 19:39:00,
2013-02-19 14:44:00,82.9,64.5,29.56,SSE,157,0.0,0.0,54,0.00,,,0.00,WUHU21623XXSP,2013-02-19 19:44:00,
2013-02-19 14:49:00,82.6,64.7,29.56,SSE,157,0.0,0.0,55,0.00,,,0.00,WUHU21623XXSP,2013-02-19 19:49:00,
2013-02-19 14:54:00,82.8,64.8,29.56,SSE,157,0.0,0.0,55,0.00,,,0.00,WUHU21623XXSP,2013-02-19 19:54:00,
2013-02-19 14:59:00,83.5,65.0,29.56,South,180,0.0,0.0,54,0.00,,,0.00,WUHU21623XXSP,2013-02-19 19:59:00,
2013-02-19 15:04:00,84.0,65.6,29.56,SE,135,0.0,0.0,54,0.00,,,0.00,WUHU21623XXSP,2013-02-19 20:04:00,
2013-02-19 15:09:00,83.8,64.9,29.55,South,180,0.0,0.0,53,0.00,,,0.00,WUHU21623XXSP,2013-02-19 20:09:00,
2013-02-19 15:14:00,82.2,64.3,29.55,SSE,157,0.0,0.0,55,0.00,,,0.00,WUHU21623XXSP,2013-02-19 20:14:00,
2013-02-19 15:19:00,80.6,63.9,29.55,ESE,112,0.0,0.0,57,0.00,,,0.00,WUHU21623XXSP,2013-02-19 20:19:00,
2013-02-19 15:24:00,79.2,63.1,29.55,SE,135,0.0,0.0,58,0.00,,,0.00,WUHU21623XXSP,2013-02-19 20:24:00,
2013-02-19 15:29:00,79.9,64.3,29.55,SSW,202,0.0,0.0,59,0.00,,,0.00,WUHU21623XXSP,2013-02-19 20:29:00,
2013-02-19 15:34:00,81.1,64.4,29.55,South,180,0.0,0.0,57,0.00,,,0.00,WUHU21623XXSP,2013-02-19 20:34:00,
2013-02-19 15:39:00,80.8,64.1,29.55,SSE,157,0.0,0.0,57,0.00,,,0.00,WUHU21623XXSP,2013-02-19 20:39:00,
2013-02-19 15:44:00,80.8,64.1,29.55,South,180,0.0,0.0,57,0.00,,,0.00,WUHU21623XXSP,2013-02-19 20:44:00,
2013-02-19 15:49:00,80.2,64.1,29.55,SE,135,0.0,0.0,58,0.00,,,0.00,WUHU21623XXSP,2013-02-19 20:49:00,
2013-02-19 15:54:00,79.5,64.0,29.55,SSE,157,0.0,0.0,59,0.00,,,0.00,WUHU21623XXSP,2013-02-19 20:54:00,
2013-02-19 15:59:00,79.7,64.1,29.55,SSE,157,0.0,0.0,59,0.00,,,0.00,WUHU21623XXSP,2013-02-19 20:59:00,
2013-02-19 16:04:00,79.7,64.1,29.55,SE,135,0.0,0.0,59,0.00,,,0.00,WUHU21623XXSP,2013-02-19 21:04:00,
2013-02-19 16:09:00,78.6,63.7,29.55,SSE,157,0.0,0.0,60,0.00,,,0.00,WUHU21623XXSP,2013-02-19 21:09:00,
2013-02-19 16:14:00,77.9,63.8,29.55,SSW,202,0.0,0.0,62,0.00,,,0.00,WUHU21623XXSP,2013-02-19 21:14:00,
2013-02-19 16:19:00,78.4,64.4,29.55,SSE,157,0.0,0.0,62,0.00,,,0.00,WUHU21623XXSP,2013-02-19 21:19:00,
2013-02-19 16:24:00,79.0,64.9,29.55,SSE,157,0.0,0.0,62,0.00,,,0.00,WUHU21623XXSP,2013-02-19 21:24:00,
2013-02-19 16:29:00,79.0,64.5,29.55,SSE,157,0.0,0.0,61,0.00,,,0.00,WUHU21623XXSP,2013-02-19 21:29:00,
2013-02-19 16:34:00,78.6,64.1,29.55,SSE,157,0.0,0.0,61,0.00,,,0.00,WUHU21623XXSP,2013-02-19 21:34:00,
2013-02-19 16:39:00,78.6,64.1,29.54,South,180,0.0,0.0,61,0.00,,,0.00,WUHU21623XXSP,2013-02-19 21:39:00,
2013-02-19 16:44:00,78.1,64.0,29.55,SSE,157,0.0,0.0,62,0.00,,,0.00,WUHU21623XXSP,2013-02-19 21:44:00,
2013-02-19 16:49:00,77.7,64.1,29.54,SE,135,0.0,0.0,63,0.00,,,0.00,WUHU21623XXSP,2013-02-19 21:49:00,
2013-02-19 16:54:00,76.6,63.5,29.54,SSE,157,0.0,0.0,64,0.00,,,0.00,WUHU21623XXSP,2013-02-19 21:54:00,
2013-02-19 16:59:00,75.9,63.3,29.54,South,180,0.0,0.0,65,0.00,,,0.00,WUHU21623XXSP,2013-02-19 21:59:00,
2013-02-19 17:04:00,75.7,63.1,29.54,SSE,157,0.0,0.0,65,0.00,,,0.00,WUHU21623XXSP,2013-02-19 22:04:00,
2013-02-19 17:09:00,75.6,62.9,29.54,South,180,0.0,0.0,65,0.00,,,0.00,WUHU21623XXSP,2013-02-19 22:09:00,
2013-02-19 17:14:00,75.2,63.5,29.53,SSE,157,0.0,0.0,67,0.00,,,0.00,WUHU21623XXSP,2013-02-19 22:14:00,
2013-02-19 17:19:00,75.2,63.5,29.53,South,180,0.0,0.0,67,0.00,,,0.00,WUHU21623XXSP,2013-02-19 22:19:00,
2013-02-19 17:24:00,75.6,63.8,29.53,SSW,202,0.0,0.0,67,0.00,,,0.00,WUHU21623XXSP,2013-02-19 22:24:00,
2013-02-19 17:29:00,75.4,63.6,29.53,SE,135,0.0,0.0,67,0.00,,,0.00,WUHU21623XXSP,2013-02-19 22:29:00,
2013-02-19 17:34:00,75.0,63.3,29.53,SE,135,0.0,0.0,67,0.00,,,0.00,WUHU21623XXSP,2013-02-19 22:34:00,
2013-02-19 17:39:00,74.8,63.1,29.54,South,180,0.0,0.0,67,0.00,,,0.00,WUHU21623XXSP,2013-02-19 22:39:00,
2013-02-19 17:44:00,74.5,63.2,29.54,SSW,202,0.0,0.0,68,0.00,,,0.00,WUHU21623XXSP,2013-02-19 22:44:00,
2013-02-19 17:49:00,74.3,63.1,29.54,South,180,0.0,0.0,68,0.00,,,0.00,WUHU21623XXSP,2013-02-19 22:49:00,
2013-02-19 17:54:00,74.1,62.9,29.53,South,180,0.0,0.0,68,0.00,,,0.00,WUHU21623XXSP,2013-02-19 22:54:00,
2013-02-19 17:59:00,73.9,63.2,29.54,South,180,0.0,0.0,69,0.00,,,0.00,WUHU21623XXSP,2013-02-19 22:59:00,
2013-02-19 18:04:00,73.8,63.0,29.54,SSE,157,0.0,0.0,69,0.00,,,0.00,WUHU21623XXSP,2013-02-19 23:04:00,
2013-02-19 18:09:00,73.4,63.1,29.55,SSE,157,0.0,0.0,70,0.00,,,0.00,WUHU21623XXSP,2013-02-19 23:09:00,
2013-02-19 18:14:00,73.2,63.0,29.54,SSE,157,0.0,0.0,70,0.00,,,0.00,WUHU21623XXSP,2013-02-19 23:14:00,
2013-02-19 18:19:00,73.0,62.8,29.55,SSW,202,0.0,0.0,70,0.00,,,0.00,WUHU21623XXSP,2013-02-19 23:19:00,
2013-02-19 18:24:00,72.7,62.8,29.55,South,180,0.0,0.0,71,0.00,,,0.00,WUHU21623XXSP,2013-02-19 23:24:00,
2013-02-19 18:29:00,72.7,62.8,29.55,South,180,0.0,0.0,71,0.00,,,0.00,WUHU21623XXSP,2013-02-19 23:29:00,
2013-02-19 18:34:00,72.5,63.0,29.55,South,180,0.0,0.0,72,0.00,,,0.00,WUHU21623XXSP,2013-02-19 23:34:00,
2013-02-19 18:39:00,72.3,62.8,29.55,SE,135,0.0,0.0,72,0.00,,,0.00,WUHU21623XXSP,2013-02-19 23:39:00,
2013-02-19 18:44:00,72.3,62.8,29.55,SSW,202,0.0,0.0,72,0.00,,,0.00,WUHU21623XXSP,2013-02-19 23:44:00,
2013-02-19 18:49:00,72.3,63.2,29.55,South,180,0.0,0.0,73,0.00,,,0.00,WUHU21623XXSP,2013-02-19 23:49:00,
2013-02-19 18:54:00,72.3,63.2,29.55,South,180,0.0,0.0,73,0.00,,,0.00,WUHU21623XXSP,2013-02-19 23:54:00,
2013-02-19 18:59:00,72.1,63.0,29.55,SSW,202,0.0,0.0,73,0.00,,,0.00,WUHU21623XXSP,2013-02-19 23:59:00,
2013-02-19 19:04:00,72.1,63.0,29.56,SSE,157,0.0,0.0,73,0.00,,,0.00,WUHU21623XXSP,2013-02-20 00:04:00,
2013-02-19 19:09:00,72.1,63.0,29.56,South,180,0.0,0.0,73,0.00,,,0.00,WUHU21623XXSP,2013-02-20 00:09:00,
2013-02-19 19:14:00,72.1,63.0,29.56,SSW,202,0.0,0.0,73,0.00,,,0.00,WUHU21623XXSP,2013-02-20 00:14:00,
2013-02-19 19:19:00,72.1,63.0,29.56,SSE,157,0.0,0.0,73,0.00,,,0.00,WUHU21623XXSP,2013-02-20 00:19:00,
2013-02-19 19:24:00,72.1,63.4,29.56,South,180,0.0,0.0,74,0.00,,,0.00,WUHU21623XXSP,2013-02-20 00:24:00,
2013-02-19 19:29:00,72.1,63.4,29.56,South,180,0.0,0.0,74,0.00,,,0.00,WUHU21623XXSP,2013-02-20 00:29:00,
2013-02-19 19:34:00,72.1,63.4,29.55,SSE,157,0.0,0.0,74,0.00,,,0.00,WUHU21623XXSP,2013-02-20 00:34:00,
2013-02-19 19:39:00,72.0,63.2,29.56,SSE,157,0.0,0.0,74,0.00,,,0.00,WUHU21623XXSP,2013-02-20 00:39:00,
2013-02-19 19:44:00,72.0,63.2,29.56,South,180,0.0,0.0,74,0.00,,,0.00,WUHU21623XXSP,2013-02-20 00:44:00,
2013-02-19 19:49:00,72.0,63.2,29.56,South,180,0.0,0.0,74,0.00,,,0.00,WUHU21623XXSP,2013-02-20 00:49:00,
2013-02-19 19:54:00,72.0,63.6,29.56,SSE,157,0.0,0.0,75,0.00,,,0.00,WUHU21623XXSP,2013-02-20 00:54:00,
2013-02-19 19:59:00,72.0,63.6,29.56,South,180,0.0,0.0,75,0.00,,,0.00,WUHU21623XXSP,2013-02-20 00:59:00,
2013-02-19 20:04:00,71.8,63.4,29.56,South,180,0.0,0.0,75,0.00,,,0.00,WUHU21623XXSP,2013-02-20 01:04:00,
2013-02-19 20:09:00,71.8,63.4,29.56,South,180,0.0,0.0,75,0.00,,,0.00,WUHU21623XXSP,2013-02-20 01:09:00,
2013-02-19 20:14:00,71.8,63.4,29.56,South,180,0.0,0.0,75,0.00,,,0.00,WUHU21623XXSP,2013-02-20 01:14:00,
2013-02-19 20:19:00,71.8,63.8,29.57,SSE,157,0.0,0.0,76,0.00,,,0.00,WUHU21623XXSP,2013-02-20 01:19:00,
2013-02-19 20:24:00,71.8,63.8,29.57,South,180,0.0,0.0,76,0.00,,,0.00,WUHU21623XXSP,2013-02-20 01:24:00,
2013-02-19 20:29:00,71.8,63.8,29.57,South,180,0.0,0.0,76,0.00,,,0.00,WUHU21623XXSP,2013-02-20 01:29:00,
2013-02-19 20:34:00,71.8,63.8,29.57,SW,225,0.0,0.0,76,0.00,,,0.00,WUHU21623XXSP,2013-02-20 01:34:00,
2013-02-19 20:39:00,71.8,63.8,29.57,SW,225,0.0,0.0,76,0.00,,,0.00,WUHU21623XXSP,2013-02-20 01:39:00,
2013-02-19 20:44:00,71.8,63.8,29.57,SW,225,0.0,0.0,76,0.00,,,0.00,WUHU21623XXSP,2013-02-20 01:44:00,
2013-02-19 20:49:00,72.0,64.0,29.57,SW,225,0.0,0.0,76,0.00,,,0.00,WUHU21623XXSP,2013-02-20 01:49:00,
2013-02-19 20:54:00,71.8,63.8,29.57,SSW,202,0.0,0.0,76,0.00,,,0.00,WUHU21623XXSP,2013-02-20 01:54:00,
2013-02-19 20:59:00,71.8,63.8,29.57,SSW,202,0.0,0.0,76,0.00,,,0.00,WUHU21623XXSP,2013-02-20 01:59:00,
2013-02-19 21:04:00,71.8,63.8,29.57,South,180,0.0,0.0,76,0.00,,,0.00,WUHU21623XXSP,2013-02-20 02:04:00,
2013-02-19 21:09:00,71.8,63.8,29.57,SW,225,0.0,0.0,76,0.00,,,0.00,WUHU21623XXSP,2013-02-20 02:09:00,
2013-02-19 21:14:00,72.0,64.0,29.57,SW,225,0.0,0.0,76,0.00,,,0.00,WUHU21623XXSP,2013-02-20 02:14:00,
2013-02-19 21:19:00,71.8,63.8,29.57,SW,225,0.0,0.0,76,0.00,,,0.00,WUHU21623XXSP,2013-02-20 02:19:00,
2013-02-19 21:24:00,71.8,63.8,29.57,SW,225,0.0,0.0,76,0.00,,,0.00,WUHU21623XXSP,2013-02-20 02:24:00,
2013-02-19 21:29:00,71.8,64.2,29.57,SW,225,0.0,0.0,77,0.00,,,0.00,WUHU21623XXSP,2013-02-20 02:29:00,
2013-02-19 21:34:00,71.8,64.2,29.57,SW,225,0.0,0.0,77,0.00,,,0.00,WUHU21623XXSP,2013-02-20 02:34:00,
2013-02-19 21:39:00,71.8,64.2,29.57,SW,225,0.0,0.0,77,0.00,,,0.00,WUHU21623XXSP,2013-02-20 02:39:00,
2013-02-19 21:44:00,71.8,64.2,29.57,SW,225,0.0,0.0,77,0.00,,,0.00,WUHU21623XXSP,2013-02-20 02:44:00,
2013-02-19 21:49:00,71.8,64.2,29.57,SW,225,0.0,0.0,77,0.00,,,0.00,WUHU21623XXSP,2013-02-20 02:49:00,
2013-02-19 21:54:00,71.6,64.4,29.57,SW,225,0.0,0.0,78,0.00,,,0.00,WUHU21623XXSP,2013-02-20 02:54:00,
2013-02-19 21:59:00,71.4,64.2,29.57,SW,225,0.0,0.0,78,0.00,,,0.00,WUHU21623XXSP,2013-02-20 02:59:00,
2013-02-19 22:04:00,71.4,64.2,29.57,SW,225,0.0,0.0,78,0.00,,,0.00,WUHU21623XXSP,2013-02-20 03:04:00,
2013-02-19 22:09:00,71.4,64.2,29.56,SW,225,0.0,0.0,78,0.00,,,0.00,WUHU21623XXSP,2013-02-20 03:09:00,
2013-02-19 22:14:00,71.4,64.2,29.57,SW,225,0.0,0.0,78,0.00,,,0.00,WUHU21623XXSP,2013-02-20 03:14:00,
2013-02-19 22:19:00,71.2,64.0,29.57,SW,225,0.0,0.0,78,0.00,,,0.00,WUHU21623XXSP,2013-02-20 03:19:00,
2013-02-19 22:24:00,71.2,64.0,29.56,SW,225,0.0,0.0,78,0.00,,,0.00,WUHU21623XXSP,2013-02-20 03:24:00,
2013-02-19 22:29:00,71.2,64.0,29.57,SW,225,0.0,0.0,78,0.00,,,0.00,WUHU21623XXSP,2013-02-20 03:29:00,
2013-02-19 22:34:00,71.2,64.0,29.56,SW,225,0.0,0.0,78,0.00,,,0.00,WUHU21623XXSP,2013-02-20 03:34:00,
2013-02-19 22:39:00,71.2,64.0,29.57,WSW,247,0.0,0.0,78,0.00,,,0.00,WUHU21623XXSP,2013-02-20 03:39:00,
2013-02-19 22:44:00,71.1,63.8,29.57,WNW,292,0.0,0.0,78,0.00,,,0.00,WUHU21623XXSP,2013-02-20 03:44:00,
2013-02-19 22:49:00,70.9,63.6,29.56,WNW,292,0.0,0.0,78,0.00,,,0.00,WUHU21623XXSP,2013-02-20 03:49:00,
2013-02-19 22:54:00,70.9,64.0,29.56,WNW,292,0.0,0.0,79,0.00,,,0.00,WUHU21623XXSP,2013-02-20 03:54:00,
2013-02-19 22:59:00,70.9,64.0,29.56,NNW,337,0.0,0.0,79,0.00,,,0.00,WUHU21623XXSP,2013-02-20 03:59:00,
2013-02-19 23:04:00,70.5,64.0,29.57,NW,315,0.0,0.0,80,0.00,,,0.00,WUHU21623XXSP,2013-02-20 04:04:00,
2013-02-19 23:09:00,70.3,63.9,29.56,WNW,292,0.0,0.0,80,0.00,,,0.00,WUHU21623XXSP,2013-02-20 04:09:00,
2013-02-19 23:14:00,70.2,63.7,29.56,NNW,337,0.0,0.0,80,0.00,,,0.00,WUHU21623XXSP,2013-02-20 04:14:00,
2013-02-19 23:19:00,70.2,63.7,29.56,WNW,292,0.0,0.0,80,0.00,,,0.00,WUHU21623XXSP,2013-02-20 04:19:00,
2013-02-19 23:24:00,70.0,63.8,29.56,WNW,292,0.0,0.0,81,0.00,,,0.00,WUHU21623XXSP,2013-02-20 04:24:00,
2013-02-19 23:29:00,69.8,64.0,29.56,NW,315,0.0,0.0,82,0.00,,,0.00,WUHU21623XXSP,2013-02-20 04:29:00,
2013-02-19 23:34:00,69.8,64.0,29.55,NW,315,0.0,0.0,82,0.00,,,0.00,WUHU21623XXSP,2013-02-20 04:34:00,
2013-02-19 23:39:00,69.6,63.8,29.55,NNW,337,0.0,0.0,82,0.00,,,0.00,WUHU21623XXSP,2013-02-20 04:39:00,
2013-02-19 23:45:00,69.6,63.8,29.55,NNW,337,0.0,0.0,82,0.00,,,0.00,WUHU21623XXSP,2013-02-20 04:45:00,
2013-02-19 23:50:00,69.6,63.8,29.55,North,0,0.0,0.0,82,0.00,,,0.00,WUHU21623XXSP,2013-02-20 04:50:00,
2013-02-19 23:55:00,69.4,63.7,29.55,NNW,337,0.0,0.0,82,0.00,,,0.00,WUHU21623XXSP,2013-02-20 04:55:00,